Location: Newark
(28.2239°N, 112.9771°E)
Time: 21:03:36
(UTC+00:00)

Hubble Space Telescope - Visible Passes

Search period start: 17 October 2019 00:00
Search period end: 27 October 2019 00:00
Orbit: 536 x 540 km, 28.5° (Epoch: 16 October)

Date Brightness Start Highest point End Pass type
(mag) Time Alt. Az. Time Alt. Az. Time Alt. Az.
24 Oct 3.6 21:26:56 10° SSE 21:28:02 11° SSE 21:29:08 10° SE visible
25 Oct 3.4 21:15:06 10° S 21:17:22 14° SSE 21:19:39 10° ESE visible
26 Oct 3.1 21:04:18 12° SSW 21:06:43 19° SSE 21:09:37 10° ESE visible
